sat.trackr.live / text

‹ back to catalog

USA 485

NORAD 62756 · 2025-014X

PAYLOAD ACTIVE UNKNOWN

§ Identity

Operator
Country
US
Launch date
2025-01-21
Launch site
AFETR
Launch vehicle
Mass (kg)
RCS (m²)

External: N2YO · Heavens-Above · Gunter

§ Orbital elements

Epoch: 2026-09-22T09:32:16.326816Z

Period
91.27 min
Inclination
42.9978°
Eccentricity
0.0000419
Mean motion
15.77715025 rev/d
Perigee alt
336.6 km
Apogee alt
337.2 km
Semi-major
6,715.1 km
B*
1.1285e-3
RAAN
239.7940°
Arg perigee
230.4502°
Mean anomaly
129.6331°
Rev number
9,611

§ Raw data

USA 4851 62756U 25014X   26265.39741119  .00199275  00000+0  11285-2 0  99952 62756  42.9978 239.7940 0000419 230.4502 129.6331 15.77715025 96113

JSON: /api/v1/satellites/62756 · /tle

For live sub-satellite position, see the globe view (requires WebGL).

§ Visibility from observer

Set your observer location to see the next 7 days of passes ≥ 10°. The values pass through the URL so the page stays shareable.

No JS? Fill the form by hand. The geolocation button needs JavaScript.